EW9248 Weather Reports


Display with metric or nautical units.
time (UTC)temp
F
wind
direction
speed
MPH
gust
MPH
rain 1hr
in
rain 24hr
in
rain mn
in
humidity
%
barometer
mb
20260831233816 68 0.0 0.0 0.00 0.45 0.45 93 1017.9
20260831232816 68 0.0 0.0 0.01 0.45 0.45 93 1017.9
20260831231857 68 0.0 1.0 0.01 0.45 0.45 93 1018.0
20260831230817 68 0.0 0.0 0.02 0.45 0.45 93 1018.0
20260831225836 68 0.0 0.0 0.03 0.45 0.45 93 1018.0
20260831224816 68 0.0 0.0 0.04 0.45 0.45 93 1018.2
20260831223836 69 0.0 0.0 0.04 0.45 0.45 92 1018.3
20260831222837 68 0.0 0.0 0.04 0.44 0.44 92 1018.5
20260831221816 69 0.0 0.0 0.04 0.44 0.44 92 1018.6
20260831220816 69 0.0 0.0 0.03 0.43 0.43 92 1018.8
20260831215836 69 0.0 0.0 0.02 0.42 0.42 92 1018.9
20260831214817 69 0.0 0.0 0.02 0.41 0.41 92 1018.9
20260831213842 69 0.0 0.0 0.02 0.41 0.41 92 1018.9
20260831212836 68 0.0 0.0 0.01 0.40 0.40 92 1018.9
20260831211816 69 0.0 0.0 0.01 0.40 0.40 92 1019.0
20260831210836 68 0.0 0.0 0.02 0.40 0.40 92 1019.0
20260831205857 69 0.0 0.0 0.03 0.40 0.40 92 1019.1
20260831204816 69 0.0 0.0 0.02 0.39 0.39 92 1018.9
20260831203816 68 0.0 0.0 0.04 0.39 0.39 92 1018.9
20260831202859 69 0.0 0.0 0.06 0.39 0.39 92 1019.0
20260831201856 69 0.0 0.0 0.08 0.39 0.39 92 1019.1
20260831200837 68 0.0 0.0 0.08 0.38 0.38 92 1019.1
20260831195836 68 0.0 0.0 0.07 0.37 0.37 92 1019.2
20260831194816 68 0.0 0.0 0.07 0.37 0.37 92 1019.2
20260831193816 68 0.0 0.0 0.05 0.35 0.35 91 1019.2
20260831192837 68 0.0 0.0 0.04 0.33 0.33 91 1019.1
20260831191856 68 0.0 0.0 0.02 0.31 0.31 91 1019.2
20260831190836 68 0.0 0.0 0.02 0.30 0.30 91 1019.5
20260831185817 68 0.0 0.0 0.03 0.30 0.30 91 1019.7
20260831184818 67 0.0 0.0 0.03 0.30 0.30 91 1019.7
20260831183836 67 0.0 0.0 0.04 0.30 0.30 91 1019.8
20260831182816 67 0.0 0.0 0.04 0.29 0.28 91 1020.0
20260831181837 67 0.0 0.0 0.04 0.29 0.28 91 1020.0
20260831180836 67 0.0 0.0 0.04 0.28 0.28 91 1020.2
20260831175837 67 0.0 0.0 0.04 0.27 0.27 91 1020.3
20260831174816 67 0.0 0.0 0.05 0.27 0.27 91 1020.4
20260831173816 67 0.0 0.0 0.05 0.26 0.26 91 1020.5
20260831172816 67 0.0 1.0 0.06 0.25 0.25 91 1020.6
20260831171917 67 0.0 0.0 0.08 0.25 0.25 91 1020.7
20260831170816 66 0.0 1.0 0.09 0.24 0.24 91 1020.8
20260831164836 66 0.0 0.0 0.18 0.22 0.22 91 1021.0
20260831163857 67 0.0 0.0 0.21 0.21 0.21 91 1021.0
20260831162856 67 0.0 0.0 0.19 0.19 0.19 90 1021.1
20260831161856 67 0.0 0.0 0.17 0.17 0.17 90 1021.1
20260831160917 67 0.0 0.0 0.15 0.15 0.15 89 1021.2
20260831155836 67 0.0 0.0 0.11 0.11 0.12 88 1021.3
20260831154856 68 0.0 0.0 0.04 0.04 0.04 86 1021.5
20260831153937 68 0.0 0.0 0.00 0.00 0.00 86 1021.1
20260831151936 69 0.0 0.0 0.00 0.00 0.00 84 1021.0
20260831150856 69 0.0 0.0 0.00 0.00 0.00 84 1021.0
20260831145936 68 0.0 0.0 0.00 0.00 0.00 85 1021.0
20260831144836 68 0.0 0.0 0.00 0.00 0.00 86 1021.0
20260831143856 68 0.0 0.0 0.00 0.00 0.00 85 1021.0
20260831142815 68 0.0 0.0 0.00 0.00 0.00 86 1021.1
20260831141815 68 0.0 0.0 0.00 0.00 0.00 86 1020.9
20260831140815 68 0.0 0.0 0.00 0.00 0.00 87 1021.0
20260831135816 67 0.0 0.0 0.00 0.00 0.00 89 1020.9
20260831134856 67 0.0 0.0 0.00 0.00 0.00 90 1021.1
20260831133836 66 0.0 1.0 0.00 0.00 0.00 90 1021.1
20260831132815 66 0.0 0.0 0.00 0.00 0.00 91 1021.1
20260831131815 65 0.0 0.0 0.00 0.00 0.00 92 1021.1
20260831130815 64 0.0 0.0 0.00 0.00 0.00 92 1021.4
20260831125836 63 0.0 0.0 0.00 0.00 0.00 92 1021.4
20260831124855 63 0.0 0.0 0.00 0.00 0.00 92 1021.3
20260831123815 63 0.0 0.0 0.00 0.00 0.00 92 1021.2
20260831122936 62 0.0 0.0 0.00 0.00 0.00 92 1021.2
20260831121836 62 0.0 0.0 0.00 0.00 0.00 92 1021.3
20260831120915 62 0.0 0.0 0.00 0.00 0.00 92 1021.4
20260831115856 61 0.0 0.0 0.00 0.00 0.00 92 1021.6
20260831114815 61 0.0 0.0 0.00 0.00 0.00 92 1021.5
20260831113815 61 0.0 0.0 0.00 0.00 0.00 92 1021.4
20260831112815 61 0.0 0.0 0.00 0.00 0.00 92 1021.4
20260831111936 61 0.0 0.0 0.00 0.00 0.00 92 1021.4
20260831110815 61 0.0 0.0 0.00 0.00 0.00 92 1021.3
20260831105835 61 0.0 0.0 0.00 0.00 0.00 92 1021.1
20260831104842 61 0.0 0.0 0.00 0.00 0.00 92 1020.9
20260831103835 61 0.0 0.0 0.00 0.00 0.00 92 1020.9
20260831102815 61 0.0 0.0 0.00 0.00 0.00 92 1020.8
20260831101835 61 0.0 0.0 0.00 0.00 0.00 92 1020.8
20260831100816 61 0.0 0.0 0.00 0.00 0.00 92 1020.8
20260831095855 61 0.0 0.0 0.00 0.00 0.00 92 1020.9
20260831094816 61 0.0 0.0 0.00 0.00 0.00 92 1021.0
20260831093815 61 0.0 0.0 0.00 0.00 0.00 92 1020.9
20260831092815 61 0.0 0.0 0.00 0.00 0.00 92 1021.0
20260831091936 61 0.0 0.0 0.00 0.00 0.00 92 1020.9
20260831090815 61 0.0 0.0 0.00 0.00 0.00 92 1021.1
20260831085835 61 0.0 0.0 0.00 0.00 0.00 92 1021.2
20260831084815 61 0.0 0.0 0.00 0.00 0.00 91 1021.1
20260831083855 61 0.0 0.0 0.00 0.00 0.00 91 1020.8
20260831082836 61 0.0 0.0 0.00 0.00 0.00 91 1020.7
20260831081815 62 0.0 0.0 0.00 0.00 0.00 91 1020.9
20260831080835 62 0.0 0.0 0.00 0.00 0.00 91 1020.9
20260831075856 62 0.0 0.0 0.00 0.00 0.00 91 1020.8
20260831074815 62 0.0 0.0 0.00 0.00 0.00 91 1020.7
20260831073815 62 0.0 0.0 0.00 0.00 0.00 91 1020.9
20260831072816 62 0.0 0.0 0.00 0.00 0.00 90 1021.0
20260831071815 63 0.0 0.0 0.00 0.00 0.00 90 1021.0
20260831070835 63 0.0 0.0 0.00 0.00 0.00 90 1020.9
20260831065815 63 0.0 0.0 0.00 0.00 0.00 90 1021.0
20260831064815 63 0.0 0.0 0.00 0.00 0.00 90 1021.1
20260831063855 63 0.0 0.0 0.00 0.00 0.00 89 1021.0
20260831062816 64 0.0 0.0 0.00 0.00 0.00 89 1021.0
20260831061815 64 0.0 0.0 0.00 0.00 0.00 89 1021.2
20260831060916 64 0.0 0.0 0.00 0.00 0.00 89 1021.3
20260831055815 65 0.0 0.0 0.00 0.00 0.00 89 1021.5
20260831054815 65 0.0 0.0 0.00 0.00 0.00 89 1021.6
20260831053935 65 0.0 0.0 0.00 0.00 0.00 89 1021.8
20260831052855 65 0.0 0.0 0.00 0.00 0.00 88 1021.7
20260831051818 65 0.0 0.0 0.00 0.00 0.00 88 1021.7
20260831050817 65 0.0 0.0 0.00 0.00 0.00 88 1021.7
20260831045917 65 0.0 0.0 0.00 0.00 0.00 88 1021.5
20260831044838 65 0.0 0.0 0.00 0.00 0.00 88 1021.5
20260831043817 65 0.0 0.0 0.00 0.00 0.00 88 1021.7
20260831042817 65 0.0 0.0 0.00 0.00 0.00 88 1021.7
20260831041837 65 0.0 0.0 0.00 0.00 0.00 88 1021.6
20260831040857 66 0.0 0.0 0.00 0.00 0.00 88 1021.6
20260831035819 65 0.0 0.0 0.00 0.00 0.00 87 1021.4
20260831034816 66 0.0 0.0 0.00 0.00 0.00 87 1021.4
20260831033835 66 0.0 0.0 0.00 0.00 0.00 87 1021.6
20260831032835 66 0.0 0.0 0.00 0.00 0.00 87 1021.5
20260831031816 66 0.0 0.0 0.00 0.00 0.00 86 1021.5
20260831030815 66 0.0 0.0 0.00 0.00 0.00 86 1021.6
20260831025815 66 0.0 0.0 0.00 0.00 0.00 86 1021.6
20260831024815 66 0.0 0.0 0.00 0.00 0.00 86 1021.5
20260831023815 66 0.0 0.0 0.00 0.00 0.00 86 1021.4
20260831022815 66 0.0 0.0 0.00 0.00 0.00 85 1021.4
20260831021815 66 0.0 0.0 0.00 0.00 0.00 84 1021.5
20260831020858 67 0.0 0.0 0.00 0.00 0.00 83 1021.4
20260831015857 67 0.0 0.0 0.00 0.00 0.00 83 1021.4
20260831014817 67 0.0 1.0 0.00 0.00 0.00 83 1021.4
20260831013838 67 0.0 0.0 0.00 0.00 0.00 83 1021.4
20260831012817 67 0.0 0.0 0.00 0.00 0.00 82 1021.3
20260831011857 68 0.0 0.0 0.00 0.00 0.00 82 1021.3
20260831010837 68 0.0 1.0 0.00 0.00 0.00 81 1021.2
20260831005816 68 0.0 2.0 0.00 0.00 0.00 81 1021.1
20260831004817 68 247 4.0 7.0 0.00 0.00 0.00 82 1021.0
20260831003857 67 292 1.0 8.0 0.00 0.00 0.00 85 1020.9
20260831002817 67 0.0 0.0 0.00 0.00 0.00 86 1020.8
20260831001816 67 0.0 0.0 0.00 0.00 0.00 86 1020.4
20260831000857 67 0.0 0.0 0.00 0.00 0.00 86 1020.2
20260830235816 68 0.0 0.0 0.00 0.00 0.00 85 1020.0
20260830234817 68 0.0 0.0 0.00 0.00 0.00 85 1019.9